Home > Weather > Ede > Past weeks

Flag for Netherlands Past Weather in Ede, Netherlands — Yesterday and Last 2 Weeks

Now
72 °F

Mild.


Feels Like: 75 °F
Forecast: 65 / 86 °F
Wind: 3 mph from Southeast

Location: Deelen

Current Time: Aug 24, 2016 at 11:53:14 PM

Latest Report: Aug 24, 2016 at 11:25 PM


Visibility: N/A

Pressure: 30.07 "Hg

Humidity: 69%

Dew Point: 61 °F

Location of EdeLocation

Past Weather in Ede — Graph

°F

Ede Temperature Yesterday

Maximum temperature yesterday: 81 °F (at 3:55 PM)
Minimum temperature yesterday: 55 °F (at 1:25 AM)
Average temperature yesterday: 69 °F

High & Low Weather Summary for the Past Weeks

 TemperatureHumidityPressure
High88 °F (Aug 24, 3:25 PM)100% (Aug 9, 10:55 PM)30.30 "Hg (Aug 9, 10:55 PM)
Low43 °F (Aug 11, 1:25 AM)33% (Aug 24, 4:25 PM)29.77 "Hg (Aug 19, 2:55 PM)
Average63 °F76%30.08 "Hg
* Reported Aug 9 10:25 PM — Aug 24 10:25 PM, Ede, Weather by CustomWeather, © 2016

Note: Actual official high and low records may vary slightly from our data, if they occured in-between our weather recording intervals... More about our weather records

Advertising

Ede Weather History for the Previous 24 Hours

Scroll right to see more
 ConditionsComfort  
Time TempWeatherWind HumidityBarometerVisibility
10:25 PM
Wed, Aug 24
70 °FMild.3 mph78%30.09 "HgN/A
9:55 PM72 °FMild.5 mph73%30.09 "HgN/A
9:25 PM75 °FMild.6 mph65%30.09 "HgN/A
8:55 PM79 °FWarm.6 mph58%30.09 "HgN/A
8:25 PM81 °FWarm.5 mph54%30.09 "HgN/A
7:55 PM82 °FWarm.6 mph48%30.09 "HgN/A
7:25 PM86 °FWarm.7 mph43%30.09 "HgN/A
6:55 PM86 °FWarm.7 mph43%30.09 "HgN/A
6:25 PM88 °FPleasantly warm.8 mph38%30.09 "HgN/A
5:55 PM88 °FPleasantly warm.9 mph38%30.09 "HgN/A
5:25 PM88 °FPassing clouds.9 mph35%30.09 "HgN/A
4:55 PM88 °FPleasantly warm.9 mph33%30.12 "HgN/A
4:25 PM88 °FScattered clouds.9 mph33%30.12 "HgN/A
3:55 PM86 °FPleasantly warm.8 mph38%30.12 "HgN/A
3:25 PM88 °FPleasantly warm.9 mph35%30.12 "HgN/A
2:55 PM86 °FPleasantly warm.8 mph38%30.12 "HgN/A
2:25 PM86 °FWarm.10 mph43%30.12 "HgN/A
1:55 PM84 °FWarm.9 mph45%30.15 "HgN/A
1:25 PM84 °FPassing clouds.8 mph43%30.15 "HgN/A
12:55 PM82 °FWarm.6 mph45%30.15 "HgN/A
12:25 PM82 °FWarm.6 mph45%30.15 "HgN/A
11:55 AM81 °FWarm.7 mph51%30.15 "HgN/A
11:25 AM79 °FPassing clouds.7 mph51%30.18 "HgN/A
10:55 AM77 °FPassing clouds.8 mph54%30.18 "HgN/A
10:25 AM75 °FMild.7 mph57%30.18 "HgN/A
9:55 AM73 °FMild.7 mph61%30.18 "HgN/A
9:25 AM72 °FMild.7 mph65%30.18 "HgN/A
8:55 AM70 °FMild.6 mph64%30.18 "HgN/A
8:25 AM68 °FMild.6 mph73%30.18 "HgN/A
7:55 AM66 °FPassing clouds.2 mph78%30.18 "HgN/A
7:25 AM64 °FPassing clouds.5 mph83%30.18 "HgN/A
6:55 AM64 °FPassing clouds.6 mph83%30.18 "HgN/A
6:25 AM64 °FMild.3 mph83%30.18 "HgN/A
5:55 AM64 °FPassing clouds.3 mph83%30.18 "HgN/A
5:25 AM64 °FPassing clouds.5 mph83%30.18 "HgN/A
4:55 AM66 °FMild.1 mph78%30.18 "HgN/A
4:25 AM66 °FPassing clouds.6 mph78%30.18 "HgN/A
3:55 AM66 °FPassing clouds.7 mph78%30.18 "HgN/A
3:25 AM66 °FPassing clouds.7 mph78%30.18 "HgN/A
2:55 AM66 °FMild.7 mph78%30.18 "HgN/A
2:25 AM66 °FPassing clouds.6 mph78%30.21 "HgN/A
1:55 AM68 °FPassing clouds.6 mph73%30.21 "HgN/A
1:25 AM70 °FMild.7 mph69%30.21 "HgN/A
12:55 AM70 °FMild.8 mph69%30.21 "HgN/A
12:25 AM70 °FMild.7 mph69%30.21 "HgN/A
11:55 PM
Tue, Aug 23
70 °FMild.5 mph69%30.21 "HgN/A
11:25 PM70 °FMild.6 mph69%30.24 "HgN/A
Weather by CustomWeather, © 2016

See weather overviewHow to use our weather pages